Flag for U.S.A. Weather past 2 weeks in Wichita Falls, Texas, U.S.A.

Now
88 °F

Sunny.


Feels Like: 92 °F
Forecast: 70 / 88 °F
Wind: 8 mph from Southeast

Location: Wichita Falls - Sheppard Air Force Base

Current Time: Sep 20, 2014 at 5:47:17 PM

Latest Report: Sep 20, 2014 at 4:52 PM


Visibility: 10 mi

Pressure: 29.89 "Hg

Humidity: 54%

Dew point: 69 °F

Location of Wichita FallsLocation

Historic Weather in Wichita Falls — Graph

°F

Wichita Falls temperature yesterday

Maximum temperature yesterday: 87 °F (at 3:52 PM)
Minimum temperature yesterday: 67 °F (at 6:52 AM)
Average temperature yesterday: 76 °F

Past Weeks' High & Low Weather Summary

 TemperatureHumidityPressure
High100 °F (Sep 9, 3:52 PM)97% (Sep 8, 7:52 AM)30.34 "Hg (Sep 8, 7:52 AM)
Low52 °F (Sep 13, 7:52 AM)29% (Sep 9, 3:52 PM)29.67 "Hg (Sep 10, 1:52 AM)
Average75 °F71%30.00 "Hg
* Reported Sep 5 4:52 PM — Sep 20 4:52 PM, Wichita Falls, Weather by CustomWeather, © 2014

Note: Actual official high and low records may vary slightly from our data, if they occured in-between our weather recording intervals... More about our weather records

Advertising

Wichita Falls weather history for previous 24 hours

 ConditionsComfort  
Time TempWeatherWind HumidityBarometerVisibility
4:52 PM
Sep 20
88 °FSunny.8 mph54%29.89 "Hg10 mi
3:52 PM87 °FSunny.9 mph51%29.92 "Hg10 mi
2:52 PM87 °FSunny.9 mph55%29.93 "Hg10 mi
1:52 PM85 °FPassing clouds.5 mph59%29.96 "Hg10 mi
12:52 PM85 °FScattered clouds.8 mph61%29.97 "Hg10 mi
7:52 AM71 °FFog.9 mph93%29.95 "Hg5 mi
6:52 AM70 °FPassing clouds.7 mph93%29.94 "Hg7 mi
5:52 AM71 °FOvercast.7 mph90%29.93 "Hg8 mi
4:52 AM71 °FPassing clouds.5 mph90%29.92 "Hg8 mi
3:52 AM71 °FPassing clouds.6 mph90%29.91 "Hg7 mi
2:52 AM72 °FPassing clouds.8 mph87%29.91 "Hg7 mi
1:52 AM73 °FPassing clouds.7 mph84%29.91 "Hg8 mi
12:52 AM75 °FOvercast.9 mph79%29.91 "Hg10 mi
11:52 PM
Sep 19
75 °FOvercast.9 mph79%29.92 "Hg10 mi
10:52 PM74 °FPassing clouds.8 mph82%29.91 "Hg10 mi
9:52 PM73 °FClear.5 mph81%29.90 "Hg10 mi
8:52 PM76 °FClear.7 mph74%29.89 "Hg10 mi
7:52 PM78 °FSunny.7 mph66%29.88 "Hg10 mi
6:52 PM82 °FScattered clouds.12 mph58%29.87 "Hg10 mi
5:52 PM84 °FScattered clouds.12 mph53%29.88 "Hg10 mi
Weather by CustomWeather, © 2014

See weather overviewHow to use our weather pages